Weather History for Meadow Lake, CO

Change the Weather History Date:

Friday, October 5, 2012

  Actual Average (KCOS) Record (KCOS)
Temperature  
Mean Temperature 34 °F 53 °F  
Max Temperature 39 °F 67 °F 83 °F (1956)
Min Temperature 28 °F 39 °F 25 °F (2013)
Degree Days  
Heating Degree Days 32 12  
Month to date heating degree days 56  
Since 1 July heating degree days 246  
Cooling Degree Days 0 0  
Month to date cooling degree days 0  
Year to date cooling degree days 454  
Moisture  
Dew Point 29 °F    
Average Humidity 82    
Maximum Humidity 99    
Minimum Humidity 59    
Precipitation  
Precipitation 0.00 in 0.03 in 1.06 in (1951)
Month to date precipitation 0.14  
Year to date precipitation 15.12  
Snow  
Snow 0.00 in 0.00 in 0.10 in (1951)
Month to date snowfall 0.2  
Since 1 July snowfall 0.4  
Since 1 September snowfall 0.4  
Snow Depth -    
Sea Level Pressure  
Sea Level Pressure 30.22 in    
Wind  
Wind Speed 8 mph (SSE)    
Max Wind Speed 18 mph    
Max Gust Speed 24 mph    
Visibility 9 miles    
Events Rain , Snow    
T = Trace of Precipitation, MM = Missing Value Source: NWS Daily Summary

Daily Weather History Graph

Daily Weather History Graph

Search for Another Location

Airport:

Trip Planner

Search our weather history database for the weather conditions in past years. The results will help you decide how hot, cold, wet, or windy it might be!

Date:

Astronomy

Oct. 05, 2012 Rise Set
Actual Time 6:58 AM MDT 6:33 PM MDT
Civil Twilight 6:31 AM MDT 7:00 PM MDT
Nautical Twilight 6:00 AM MDT 7:31 PM MDT
Astronomical Twilight 5:29 AM MDT 8:02 PM MDT
Moon 10:01 PM MDT (10/5) 12:05 PM MDT (10/5)
Length of Visible Light 12h 28m
Length of Day
11h 35m
Waning Gibbous, 73% of the Moon is Illuminated
Oct 5
Waning Gibbous
Oct 8
Last Quarter
Oct 15
New
Oct 21
First Quarter
Oct 29
Full

Hourly Weather History & Observations

Time (MDT) Temp. Windchill Dew Point Humidity Pressure Visibility Wind Dir Wind Speed Gust Speed Precip Events Conditions
12:12 AM 38.5 °F 32.1 °F 25.2 °F 59% 30.26 in 10.0 mi South 9.2 mph 19.6 mph N/A   Overcast
12:32 AM 38.5 °F 32.1 °F 25.3 °F 59% 30.26 in 10.0 mi South 9.2 mph - N/A   Overcast
12:52 AM 38.1 °F 32.3 °F 26.4 °F 63% 30.25 in 10.0 mi South 8.1 mph 16.1 mph N/A   Overcast
1:12 AM 37.4 °F 29.3 °F 26.6 °F 65% 30.24 in 10.0 mi South 12.7 mph 17.3 mph N/A Snow Light Snow
1:32 AM 35.6 °F 25.2 °F 28.4 °F 75% 30.18 in 10.0 mi SSE 18.4 mph - N/A Rain Rain
1:52 AM 35.8 °F 26.5 °F 27.0 °F 70% 30.20 in 10.0 mi South 15.0 mph - N/A   Overcast
2:12 AM 35.2 °F 25.8 °F 26.4 °F 70% 30.19 in 10.0 mi SSE 15.0 mph 21.9 mph N/A   Overcast
2:32 AM 34.7 °F 24.3 °F 25.7 °F 70% 30.20 in 10.0 mi South 17.3 mph 24.2 mph N/A   Overcast
2:52 AM 33.6 °F 23.3 °F 27.1 °F 77% 30.16 in 10.0 mi SSE 16.1 mph 24.2 mph N/A   Drizzle
3:12 AM 32.9 °F 25.9 °F 27.5 °F 81% 30.17 in 10.0 mi South 8.1 mph 16.1 mph N/A   Mostly Cloudy
3:32 AM 32.9 °F 24.1 °F 27.0 °F 79% 30.18 in 10.0 mi South 11.5 mph 16.1 mph N/A   Mostly Cloudy
3:52 AM 32.4 °F 24.0 °F 26.4 °F 79% 30.16 in 10.0 mi South 10.4 mph - N/A   Mostly Cloudy
4:12 AM 32.0 °F 24.2 °F 26.6 °F 80% 30.16 in 10.0 mi South 9.2 mph - N/A   Mostly Cloudy
4:32 AM 32.0 °F 28.7 °F 27.1 °F 82% 30.18 in 10.0 mi SSW 3.5 mph - N/A   Mostly Cloudy
4:52 AM 32.0 °F 26.4 °F 27.1 °F 82% 30.18 in 10.0 mi South 5.8 mph - N/A   Mostly Cloudy
5:12 AM 31.6 °F - 27.0 °F 83% 30.20 in 10.0 mi Calm Calm - N/A   Mostly Cloudy
5:32 AM 31.8 °F 28.5 °F 27.0 °F 82% 30.17 in 10.0 mi SE 3.5 mph - N/A   Mostly Cloudy
5:52 AM 31.3 °F 26.6 °F 27.0 °F 84% 30.18 in 10.0 mi South 4.6 mph - N/A   Mostly Cloudy
6:12 AM 28.8 °F - 25.7 °F 88% 30.19 in 10.0 mi Calm Calm - N/A   Scattered Clouds
6:32 AM 32.0 °F 27.5 °F 28.0 °F 85% 30.21 in 10.0 mi North 4.6 mph - N/A   Mostly Cloudy
6:52 AM 32.2 °F - 27.9 °F 84% 30.22 in 10.0 mi Calm Calm - N/A   Overcast
7:12 AM 32.4 °F 26.9 °F 28.4 °F 85% 30.19 in 10.0 mi East 5.8 mph - N/A   Overcast
7:32 AM 32.0 °F 26.4 °F 27.9 °F 85% 30.19 in 10.0 mi SE 5.8 mph - N/A   Overcast
7:52 AM 32.0 °F 24.8 °F 27.9 °F 85% 30.18 in 10.0 mi SE 8.1 mph - N/A   Overcast
8:12 AM 32.2 °F 25.8 °F 27.7 °F 83% 30.19 in 10.0 mi SE 6.9 mph - N/A   Overcast
8:32 AM 32.4 °F 24.6 °F 27.3 °F 82% 30.19 in 10.0 mi SSE 9.2 mph - N/A   Overcast
8:52 AM 33.1 °F 24.9 °F 27.5 °F 80% 30.20 in 10.0 mi SSE 10.4 mph - N/A   Overcast
9:12 AM 33.6 °F 26.8 °F 27.7 °F 79% 30.21 in 10.0 mi SSE 8.1 mph - N/A   Overcast
9:32 AM 34.3 °F 27.7 °F 28.0 °F 78% 30.21 in 10.0 mi SSE 8.1 mph - N/A   Overcast
9:52 AM 35.1 °F 27.4 °F 28.2 °F 76% 30.21 in 10.0 mi SSE 10.4 mph - N/A   Overcast
10:12 AM 35.4 °F 29.7 °F 28.4 °F 76% 30.21 in 10.0 mi SSE 6.9 mph 16.1 mph N/A   Overcast
10:32 AM 35.6 °F 29.9 °F 28.8 °F 76% 30.21 in 10.0 mi SSE 6.9 mph - N/A   Overcast
10:52 AM 35.8 °F 30.1 °F 28.8 °F 76% 30.21 in 10.0 mi SE 6.9 mph - N/A   Overcast
11:12 AM 36.0 °F 31.1 °F 28.9 °F 76% 30.21 in 10.0 mi SSE 5.8 mph 17.3 mph N/A   Overcast
11:32 AM 36.0 °F 31.1 °F 29.1 °F 76% 30.21 in 10.0 mi ESE 5.8 mph - N/A   Overcast
11:52 AM 36.9 °F 31.4 °F 29.3 °F 74% 30.21 in 10.0 mi SSE 6.9 mph - N/A   Overcast
12:32 PM 37.4 °F - 29.5 °F 73% 30.21 in 10.0 mi Calm Calm - N/A   Overcast
12:52 PM 38.1 °F 35.7 °F 29.7 °F 72% 30.20 in 10.0 mi South 3.5 mph - N/A   Overcast
1:12 PM 38.3 °F 35.9 °F 29.8 °F 72% 30.20 in 10.0 mi ESE 3.5 mph - N/A   Overcast
1:32 PM 38.3 °F 35.9 °F 29.8 °F 72% 30.20 in 10.0 mi SE 3.5 mph - N/A   Overcast
1:52 PM 39.4 °F 37.2 °F 30.0 °F 69% 30.19 in 10.0 mi NNE 3.5 mph - N/A   Overcast
2:12 PM 39.4 °F - 30.2 °F 70% 30.19 in 10.0 mi Calm Calm - N/A   Overcast
2:32 PM 39.7 °F 34.9 °F 30.2 °F 69% 30.19 in 10.0 mi SE 6.9 mph - N/A   Overcast
2:52 PM 39.0 °F 35.7 °F 30.0 °F 70% 30.20 in 10.0 mi SE 4.6 mph - N/A   Overcast
3:12 PM 37.6 °F 34.0 °F 29.7 °F 73% 30.21 in 10.0 mi NE 4.6 mph - N/A   Overcast
3:32 PM 36.7 °F - 29.8 °F 76% 30.21 in 10.0 mi Calm Calm - N/A   Overcast
3:52 PM 36.7 °F 30.5 °F 30.9 °F 80% 30.21 in 10.0 mi North 8.1 mph - N/A   Overcast
4:12 PM 35.8 °F 28.3 °F 30.6 °F 81% 30.22 in 10.0 mi North 10.4 mph - N/A   Overcast
4:32 PM 35.4 °F 27.8 °F 30.7 °F 83% 30.23 in 10.0 mi North 10.4 mph - N/A   Overcast
4:52 PM 34.7 °F 28.8 °F 30.9 °F 86% 30.23 in 10.0 mi NNE 6.9 mph - N/A   Overcast
5:12 PM 34.7 °F 28.1 °F 30.9 °F 86% 30.24 in 10.0 mi North 8.1 mph - N/A   Overcast
5:32 PM 34.3 °F 26.5 °F 30.6 °F 86% 30.24 in 10.0 mi North 10.4 mph - N/A   Overcast
5:52 PM 33.8 °F 26.4 °F 30.7 °F 89% 30.24 in 10.0 mi North 9.2 mph - N/A   Overcast
6:12 PM 33.4 °F 29.1 °F 31.1 °F 91% 30.25 in 10.0 mi North 4.6 mph - N/A   Light Drizzle
6:32 PM 32.9 °F 27.5 °F 31.3 °F 94% 30.25 in 7.0 mi North 5.8 mph - N/A   Light Drizzle
6:52 PM 32.9 °F - 31.6 °F 95% 30.26 in 4.0 mi Calm Calm - N/A   Drizzle
7:12 PM 32.9 °F - 32.0 °F 96% 30.26 in 2.0 mi Calm Calm - N/A   Overcast
7:32 PM 32.0 °F 25.6 °F 31.3 °F 97% 30.26 in 4.0 mi SE 6.9 mph - N/A   Overcast
7:52 PM 32.0 °F 28.7 °F 31.5 °F 98% 30.26 in 4.0 mi SE 3.5 mph - N/A   Overcast
8:12 PM 32.0 °F - 31.5 °F 98% 30.26 in 10.0 mi Calm Calm - N/A   Overcast
8:32 PM 32.0 °F 26.4 °F 31.6 °F 99% 30.28 in 10.0 mi SSE 5.8 mph - N/A   Overcast
8:52 PM 32.0 °F 26.4 °F 31.5 °F 98% 30.27 in 5.0 mi SSE 5.8 mph - N/A   Overcast
9:32 PM 32.0 °F 27.5 °F 31.6 °F 99% 30.28 in 3.0 mi SSE 4.6 mph - N/A   Overcast
9:52 PM 32.0 °F 24.8 °F 31.6 °F 99% 30.27 in 1.5 mi South 8.1 mph - N/A   Overcast
10:12 PM 31.6 °F 23.7 °F 31.1 °F 98% 30.26 in 2.0 mi SSE 9.2 mph - N/A   Overcast
10:32 PM 31.1 °F 24.5 °F 30.9 °F 99% 30.26 in 2.5 mi SSE 6.9 mph - N/A   Overcast
10:52 PM 31.1 °F 24.5 °F 30.7 °F 99% 30.25 in 2.5 mi SSE 6.9 mph - N/A   Overcast
11:12 PM 30.6 °F 22.4 °F 30.2 °F 99% 30.24 in 3.0 mi SSE 9.2 mph - N/A   Overcast
11:32 PM 30.6 °F 23.1 °F 30.2 °F 99% 30.24 in 3.0 mi South 8.1 mph - N/A   Overcast
11:52 PM 30.6 °F 23.1 °F 30.2 °F 99% 30.23 in 1.0 mi SSE 8.1 mph - N/A   Overcast